Flag Weather past 2 weeks in San Marino, San Marino

Now
50 °F

Light rain. Fog.


Feels Like: N/A
Forecast: 47 / 53 °F
Wind: N/A

Location: Rimini Airport

Current Time: Nov 26, 2014 at 10:44:49 PM

Latest Report: Nov 26, 2014 at 9:15 PM


Visibility: 1 mi

Pressure: 30.01 "Hg

Humidity: 94%

Dew point: 48 °F

Location of San MarinoLocation

Historic Weather in San Marino — Graph

°F

San Marino temperature yesterday

Maximum temperature yesterday: 54 °F (at 11:15 AM)
Minimum temperature yesterday: 45 °F (at 7:15 AM)
Average temperature yesterday: 50 °F

Past Weeks' High & Low Weather Summary

 TemperatureHumidityPressure
High68 °F (Nov 12, 1:45 PM)100% (Nov 12, 5:15 AM)30.36 "Hg (Nov 12, 5:15 AM)
Low45 °F (Nov 20, 2:45 AM)52% (Nov 16, 4:45 AM)29.59 "Hg (Nov 17, 10:15 PM)
Average56 °F89%29.98 "Hg
* Reported Nov 11 9:15 PM — Nov 26 9:15 PM, San Marino, Weather by CustomWeather, © 2014

Note: Actual official high and low records may vary slightly from our data, if they occured in-between our weather recording intervals... More about our weather records

Advertising

San Marino weather history for previous 24 hours

 ConditionsComfort  
Time TempWeatherWind HumidityBarometerVisibility
9:15 PM
Nov 26
50 °FLight rain. Fog.N/A94%30.01 "Hg1 mi
8:45 PM50 °FLight rain. Fog.N/A94%30.01 "Hg1 mi
8:15 PM50 °FLight rain. Fog.N/A94%30.01 "Hg1 mi
7:45 PM50 °FLight rain. Fog.N/A94%30.01 "Hg1 mi
7:15 PM50 °FLight rain. Fog.N/A94%30.01 "Hg1 mi
6:45 PM50 °FLight rain. Fog.N/A94%30.01 "Hg1 mi
6:15 PM50 °FLight rain. Fog.N/A94%30.01 "Hg1 mi
5:15 PM52 °FLight rain. Fog.N/A94%29.98 "Hg1 mi
4:45 PM50 °FLight rain. Fog.N/A100%29.98 "Hg1 mi
4:15 PM52 °FFog.N/A94%29.98 "Hg1 mi
3:15 PM52 °FFog.N/A94%29.98 "Hg1 mi
11:15 AM52 °FLight rain. Fog.N/A94%30.04 "Hg1 mi
10:45 AM52 °FLight rain. Fog.N/A94%30.04 "Hg1 mi
10:15 AM52 °FLight rain. Fog.N/A94%30.04 "Hg1 mi
9:45 AM52 °FLight rain. Fog.N/A94%30.04 "Hg1 mi
9:15 AM52 °FDrizzle. Fog.N/A94%30.04 "Hg1 mi
8:45 AM52 °FDrizzle. Fog.N/A100%30.04 "Hg1 mi
8:15 AM52 °FDrizzle. Fog.N/A94%30.04 "Hg1 mi
7:45 AM54 °FDrizzle. Fog.N/A94%30.04 "Hg1 mi
7:15 AM54 °FDrizzle. Fog.N/A94%30.04 "Hg1 mi
6:45 AM54 °FDrizzle. Fog.N/A94%30.04 "Hg1 mi
6:15 AM54 °FDrizzle. Fog.N/A94%30.07 "Hg1 mi
5:45 AM54 °FDrizzle. Fog.N/A94%30.07 "Hg1 mi
4:15 AM52 °FDrizzle. Fog.N/A100%30.07 "Hg1 mi
3:45 AM52 °FDrizzle. Fog.N/A100%30.07 "Hg1 mi
3:15 AM52 °FDrizzle. Fog.N/A100%30.07 "Hg1 mi
2:45 AM52 °FDrizzle. Fog.N/A100%30.07 "Hg1 mi
1:45 AM52 °FFog.N/A100%30.09 "Hg1 mi
1:15 AM52 °FFog.N/A100%30.09 "Hg1 mi
12:15 AM52 °FFog.N/A94%30.12 "Hg1 mi
11:45 PM
Nov 25
52 °FFog.N/A94%30.12 "Hg1 mi
11:15 PM52 °FFog.N/A94%30.12 "Hg1 mi
10:45 PM52 °FFog.N/A94%30.12 "Hg1 mi
10:15 PM52 °FFog.N/A94%30.12 "Hg1 mi
Weather by CustomWeather, © 2014

See weather overviewHow to use our weather pages